{"data":{"norad_id":66769,"epoch":"2026-05-24T22:15:01.280160Z","epoch_age_seconds":75132,"freshness":"FRESH","line1":"1 66769U 25276DH  26144.92709815  .00003946  00000+0  18503-3 0  9995","line2":"2 66769  97.4210 219.1088 0000945  49.6569 310.4748 15.20253003 26900","mean_motion":15.20253003,"eccentricity":9.45e-5,"inclination_deg":97.421,"raan_deg":219.1088,"arg_perigee_deg":49.6569,"mean_anomaly_deg":310.4748,"bstar":0.00018503,"rev_number":2690,"period_min":94.721075844505,"perigee_km":504.42636694678,"apogee_km":505.72729436077,"semimajor_km":6883.2138306538,"source":"CELESTRAK","updated_at":"2026-05-25T13:38:06.476334Z"}}